Home   Weather   Tel Aviv   Past weeks
Flag for Israel

Past Weather in Tel Aviv, Israel — Yesterday and Last 2 Weeks

Now
61 °F

Passing clouds.


Feels Like: 61 °F
Forecast: 66 / 58 °F
Wind: 7 mph from Northwest

Location: Ben Gurion International Airport

Current Time: Mar 28, 2020 at 9:45:33 pm

Latest Report: Mar 28, 2020 at 8:50 pm


Visibility: N/A

Pressure: 30.01 "Hg

Humidity: 72%

Dew Point: 52 °F

Location of Tel AvivLocation

Past Weather in Tel Aviv — Graph

°F

Tel Aviv Temperature Yesterday

Maximum temperature yesterday: 82 °F (at 11:50 am)
Minimum temperature yesterday: 63 °F (at 7:20 am)
Average temperature yesterday: 69 °F

High & Low Weather Summary for the Past Weeks

 TemperatureHumidityPressure
High82 °F (Mar 27, 11:50 am)94% (Mar 13, 9:50 pm)30.09 "Hg (Mar 13, 9:50 pm)
Low46 °F (Mar 21, 5:50 am)16% (Mar 26, 1:50 pm)29.50 "Hg (Mar 13, 7:20 pm)
Average61 °F71%29.90 "Hg
* Reported Mar 13 7:20 pm — Mar 28 8:50 pm, Tel Aviv. Weather by CustomWeather, © 2020

Note: Actual official high and low records may vary slightly from our data, if they occured in-between our weather recording intervals... More about our weather records

Tel Aviv Weather History for the Previous 24 Hours

Scroll right to see more
 ConditionsComfort  
Time TempWeatherWind HumidityBarometerVisibility
8:50 pm
Sat, Mar 28
61 °FPassing clouds.7 mph72%30.01 "HgN/A
8:20 pm61 °FPassing clouds.9 mph72%29.98 "HgN/A
7:50 pm61 °FPassing clouds.10 mph72%29.98 "HgN/A
7:20 pm63 °FPassing clouds.12 mph68%29.98 "HgN/A
6:50 pm63 °FPassing clouds.13 mph68%29.98 "HgN/A
6:20 pm64 °FPassing clouds.14 mph64%29.98 "HgN/A
5:50 pm64 °FScattered clouds.14 mph64%29.98 "HgN/A
5:20 pm64 °FPassing clouds.15 mph64%29.95 "HgN/A
4:50 pm64 °FScattered clouds.15 mph68%29.95 "HgN/A
4:20 pm66 °FScattered clouds.15 mph64%29.95 "HgN/A
3:50 pm66 °FScattered clouds.16 mph64%29.98 "HgN/A
3:20 pm68 °FScattered clouds.12 mph60%29.98 "HgN/A
2:50 pm66 °FScattered clouds.16 mph64%29.98 "HgN/A
2:20 pm66 °FScattered clouds.14 mph64%29.98 "HgN/A
1:50 pm66 °FScattered clouds.15 mph64%29.98 "HgN/A
1:20 pm68 °FScattered clouds.14 mph60%29.98 "HgN/A
12:50 pm68 °FScattered clouds.14 mph60%29.98 "HgN/A
12:20 pm68 °FScattered clouds.13 mph56%29.98 "HgN/A
11:50 am68 °FScattered clouds.13 mph60%29.98 "HgN/A
11:20 am68 °FScattered clouds.13 mph64%29.98 "HgN/A
10:50 am66 °FScattered clouds.14 mph64%29.98 "HgN/A
10:20 am64 °FScattered clouds.14 mph68%29.98 "HgN/A
9:50 am64 °FScattered clouds.12 mph73%29.98 "HgN/A
9:20 am64 °FScattered clouds.10 mph73%29.98 "HgN/A
8:50 am64 °FScattered clouds.12 mph73%29.95 "HgN/A
8:20 am63 °FScattered clouds.9 mph83%29.95 "HgN/A
7:50 am63 °FScattered clouds.5 mph83%29.95 "HgN/A
7:20 am61 °FScattered clouds.3 mph88%29.92 "HgN/A
6:50 am61 °FPassing clouds.5 mph88%29.92 "HgN/A
6:20 am61 °FPassing clouds.5 mph88%29.92 "HgN/A
5:50 am61 °FPassing clouds.7 mph88%29.92 "HgN/A
5:20 am61 °FPassing clouds.6 mph94%29.89 "HgN/A
4:50 am61 °FPassing clouds.8 mph94%29.89 "HgN/A
4:20 am61 °FPassing clouds.7 mph94%29.89 "HgN/A
3:50 am63 °FPassing clouds.7 mph88%29.89 "HgN/A
3:20 am63 °FPassing clouds.7 mph88%29.89 "HgN/A
2:50 am63 °FPassing clouds.7 mph88%29.89 "HgN/A
2:20 am63 °FPassing clouds.7 mph94%29.89 "HgN/A
1:50 am63 °FPassing clouds.5 mph88%29.86 "HgN/A
1:20 am63 °FPassing clouds.3 mph88%29.86 "HgN/A
12:50 am63 °FPassing clouds.5 mph94%29.86 "HgN/A
12:20 am63 °FPassing clouds.3 mph94%29.86 "Hg6 mi
11:50 pm
Fri, Mar 27
63 °FPassing clouds.7 mph94%29.83 "Hg6 mi
11:20 pm63 °FClear.6 mph88%29.83 "Hg10 mi
10:50 pm63 °FClear.3 mph88%29.83 "Hg10 mi
10:20 pm63 °FClear.3 mph83%29.80 "Hg10 mi
9:50 pm63 °FClear.1 mph83%29.80 "Hg10 mi
9:20 pm64 °FClear.1 mph73%29.80 "Hg10 mi
Weather by CustomWeather, © 2020

See weather overview

Advertising